Date String (YYYY-MM-DD hh:mm:ss) UTC,Instrument flags,Ambient pressure (hPa),Sample flow (lpm),Bypass flow (lpm),Sample temperature (°C),Ambient temperature (°C),ASC tube jacket temperature (°C),LED temperature (°C),Box temperature (°C),Sample RH (%),Span deviation,Mass concentration (μg/m³),Mass concentration (μg/m³),Mass concentration (μg/m³)
DateTimeUTC,F1_M11,P_M11,Q1_M11,Q2_M11,T1_M11,T2_M11,T3_M11,T4_M11,T5_M11,U1_M11,ZSPAN_M11,X0_M11,X2_M11,X1_M11
2022-04-20 20:00:00,,0817.8,5.00,0.00,28.4,27.6,00.0,37.3,30.2,09.4,0000.0,0036.41,0009.69,0003.53
2022-04-20 20:01:00,,0817.7,5.02,0.00,28.4,27.6,00.0,37.3,30.2,08.4,0000.0,0036.16,0009.67,0003.52
2022-04-20 20:02:00,,0817.7,5.00,0.00,28.4,27.6,00.0,37.3,30.2,08.2,0000.0,0037.07,0009.58,0003.52
2022-04-20 20:03:00,,0817.8,4.99,0.00,28.4,27.7,00.0,37.3,30.2,09.2,0000.0,0037.48,0009.56,0003.51
2022-04-20 20:04:00,,0817.8,5.01,0.00,28.4,27.7,00.0,37.3,30.2,09.2,0000.0,0036.92,0009.43,0003.47
2022-04-20 20:05:00,,0817.9,5.00,0.00,28.4,27.7,00.0,37.3,30.2,09.7,0000.0,0037.09,0009.34,0003.46
2022-04-20 20:06:00,,0818.1,5.00,0.00,28.4,27.7,00.0,37.3,30.2,09.1,0000.0,0036.01,0009.21,0003.42
2022-04-20 20:07:00,,0818.0,5.01,0.00,28.4,27.7,00.0,37.3,30.2,08.2,0000.0,0035.89,0009.27,0003.43
2022-04-20 20:08:00,,0818.0,5.00,0.00,28.4,27.7,00.0,37.3,30.2,08.1,0000.0,0037.09,0009.47,0003.47
2022-04-20 20:09:00,,0818.0,4.99,0.00,28.4,27.7,00.0,37.3,30.2,08.1,0000.0,0036.27,0009.51,0003.49
2022-04-20 20:10:00,,0818.0,5.00,0.00,28.4,27.7,00.0,37.3,30.2,08.0,0000.0,0035.82,0009.51,0003.53
2022-04-20 20:11:00,,0817.9,5.00,0.00,28.4,27.7,00.0,37.3,30.2,08.2,0000.0,0036.38,0009.51,0003.54
2022-04-20 20:12:00,,0818.0,4.99,0.00,28.4,27.7,00.0,37.3,30.2,08.9,0002.6,0035.71,0009.53,0003.55
2022-04-20 20:13:00,,0817.9,4.99,0.00,28.4,27.7,00.0,37.3,30.2,08.4,0001.4,0034.23,0009.61,0003.56
2022-04-20 20:14:00,,0817.8,5.00,0.00,28.5,27.8,00.0,37.3,30.3,08.4,0004.0,0033.05,0009.63,0003.57
2022-04-20 20:15:00,,0817.9,5.01,0.00,28.5,27.8,00.0,37.3,30.3,09.3,0004.2,0033.19,0009.74,0003.57
2022-04-20 20:16:00,,0817.9,4.99,0.00,28.5,27.7,00.0,37.4,30.2,10.2,0004.0,0032.93,0009.79,0003.55
2022-04-20 20:17:00,,0817.9,5.01,0.00,28.5,27.8,00.0,37.4,30.2,10.5,0003.3,0032.75,0009.73,0003.54
2022-04-20 20:18:00,,0818.0,4.99,0.00,28.5,27.7,00.0,37.4,30.2,10.6,0002.8,0032.77,0009.65,0003.51
2022-04-20 20:19:00,,0818.0,4.99,0.00,28.5,27.7,00.0,37.4,30.2,10.5,0001.5,0031.90,0009.50,0003.48
2022-04-20 20:20:00,,0818.0,5.00,0.00,28.4,27.7,00.0,37.4,30.2,10.1,0000.5,0032.99,0009.32,0003.45
2022-04-20 20:21:00,,0818.0,5.01,0.00,28.4,27.7,00.0,37.4,30.2,10.0,-000.1,0033.31,0009.31,0003.43
2022-04-20 20:22:00,,0817.9,5.00,0.00,28.4,27.7,00.0,37.4,30.2,09.2,0000.0,0033.53,0009.35,0003.43
2022-04-20 20:23:00,,0818.0,4.99,0.00,28.5,27.7,00.0,37.4,30.2,09.9,-000.0,0035.04,0009.23,0003.42
2022-04-20 20:24:00,,0818.2,5.00,0.00,28.5,27.7,00.0,37.4,30.2,10.2,-000.1,0035.68,0009.14,0003.40
2022-04-20 20:25:00,,0818.2,5.01,0.00,28.4,27.7,00.0,37.4,30.2,10.5,0000.0,0035.53,0008.93,0003.36
2022-04-20 20:26:00,,0818.1,4.99,0.00,28.4,27.7,00.0,37.4,30.2,10.8,0000.0,0035.68,0008.82,0003.35
2022-04-20 20:27:00,,0818.1,5.01,0.00,28.4,27.7,00.0,37.4,30.2,10.6,0000.0,0035.51,0008.63,0003.35
2022-04-20 20:28:00,,0818.0,5.01,0.00,28.4,27.7,00.0,37.4,30.2,10.6,0000.0,0037.31,0008.66,0003.36
2022-04-20 20:29:00,,0818.0,5.01,0.00,28.4,27.8,00.0,37.4,30.2,10.7,0000.0,0038.04,0008.67,0003.38
2022-04-20 20:30:00,,0817.9,5.00,0.00,28.4,27.7,00.0,37.4,30.2,10.4,0000.0,0039.38,0008.63,0003.38
2022-04-20 20:31:00,,0818.1,4.99,0.00,28.4,27.7,00.0,37.4,30.2,10.2,0000.0,0037.50,0008.65,0003.37
2022-04-20 20:32:00,,0818.3,5.00,0.00,28.4,27.6,00.0,37.4,30.2,09.7,0000.0,0036.31,0008.55,0003.36
2022-04-20 20:33:00,,0818.2,5.02,0.00,28.4,27.6,00.0,37.4,30.2,09.2,0000.0,0036.09,0008.48,0003.36
2022-04-20 20:34:00,,0818.1,4.99,0.00,28.4,27.7,00.0,37.4,30.2,08.5,0000.0,0035.05,0008.59,0003.36
2022-04-20 20:35:00,,0818.0,4.99,0.00,28.4,27.7,00.0,37.4,30.2,08.2,0000.0,0034.57,0008.62,0003.37
2022-04-20 20:36:00,,0818.1,4.99,0.00,28.4,27.7,00.0,37.3,30.2,07.8,0000.0,0034.54,0008.73,0003.40
2022-04-20 20:37:00,,0818.0,5.01,0.00,28.5,27.8,00.0,37.4,30.2,08.1,0000.0,0034.57,0008.85,0003.43
2022-04-20 20:38:00,,0818.0,4.99,0.00,28.5,27.8,00.0,37.4,30.2,08.0,-002.5,0035.27,0009.09,0003.46
2022-04-20 20:39:00,,0818.0,4.99,0.00,28.5,27.8,00.0,37.4,30.2,08.0,-001.3,0034.62,0009.26,0003.48
2022-04-20 20:40:00,,0817.9,4.99,0.00,28.5,27.8,00.0,37.4,30.2,08.8,-002.0,0035.32,0009.33,0003.50
2022-04-20 20:41:00,,0818.0,5.01,0.00,28.5,27.9,00.0,37.4,30.3,10.3,-000.8,0034.17,0009.34,0003.51
2022-04-20 20:42:00,,0817.9,5.00,0.00,28.5,27.9,00.0,37.4,30.3,10.4,-000.4,0035.98,0009.39,0003.50
2022-04-20 20:43:00,,0818.0,5.00,0.00,28.5,27.8,00.0,37.4,30.3,09.5,0000.0,0037.85,0009.37,0003.51
2022-04-20 20:44:00,,0818.0,5.00,0.00,28.5,27.8,00.0,37.4,30.3,09.7,0000.0,0038.38,0009.40,0003.51
2022-04-20 20:45:00,,0818.0,5.00,0.00,28.5,27.9,00.0,37.4,30.3,08.6,0000.0,0037.87,0009.30,0003.50
2022-04-20 20:46:00,,0818.0,5.02,0.00,28.5,27.9,00.0,37.4,30.3,08.2,0000.0,0037.52,0009.37,0003.51
2022-04-20 20:47:00,,0817.9,5.00,0.00,28.6,27.9,00.0,37.4,30.3,08.1,0000.0,0037.16,0009.35,0003.49
2022-04-20 20:48:00,,0817.9,4.99,0.00,28.6,28.0,00.0,37.4,30.4,08.0,0000.0,0037.28,0009.26,0003.49
2022-04-20 20:49:00,,0818.0,4.99,0.00,28.6,28.0,00.0,37.4,30.4,08.1,0000.0,0038.34,0009.28,0003.48
2022-04-20 20:50:00,,0818.0,5.01,0.00,28.6,28.0,00.0,37.4,30.4,08.3,0000.0,0037.57,0009.25,0003.49
2022-04-20 20:51:00,,0818.1,5.01,0.00,28.6,28.0,00.0,37.5,30.4,07.9,0000.0,0036.61,0009.09,0003.47
2022-04-20 20:52:00,,0818.0,5.01,0.00,28.6,28.0,00.0,37.5,30.4,07.6,0000.0,0037.07,0009.21,0003.50
2022-04-20 20:53:00,,0817.9,5.00,0.00,28.6,28.0,00.0,37.5,30.4,07.4,0000.0,0035.88,0009.25,0003.53
2022-04-20 20:54:00,,0817.9,4.99,0.00,28.6,28.0,00.0,37.5,30.4,07.3,0000.0,0033.50,0009.26,0003.52
2022-04-20 20:55:00,,0818.0,5.00,0.00,28.6,28.0,00.0,37.5,30.4,07.4,0000.0,0032.94,0009.26,0003.54
2022-04-20 20:56:00,,0818.0,5.02,0.00,28.7,28.0,00.0,37.5,30.5,07.6,0000.0,0033.48,0009.30,0003.54
2022-04-20 20:57:00,,0817.9,4.99,0.00,28.7,28.0,00.0,37.5,30.5,07.1,0000.0,0034.62,0009.17,0003.50
2022-04-20 20:58:00,,0817.9,5.00,0.00,28.7,28.1,00.0,37.5,30.5,07.3,0000.0,0035.90,0009.19,0003.49
2022-04-20 20:59:00,,0817.9,5.01,0.00,28.7,28.1,00.0,37.5,30.5,07.4,0000.0,0035.90,0009.19,0003.47
